Flag for Germany Weather past 2 weeks in Tuttlingen, Baden-Württemberg, Germany

Now
73 °F

Passing clouds.


Feels Like: 74 °F
Forecast: 56 / 84 °F
Wind: 1 mph from East

Location: Konstanz

Current Time: Aug 30, 2015 at 9:59:45 AM

Latest Report: Aug 30, 2015 at 9:00 AM


Visibility: 19 mi

Pressure: 30.12 "Hg (27.97 "Hg at 643m altitude)

Humidity: 74%

Dew point: 64 °F

Location of TuttlingenLocation

Historic Weather in Tuttlingen — Graph

°F

Tuttlingen temperature yesterday

Maximum temperature yesterday: 92 °F (at 5:00 PM)
Minimum temperature yesterday: 64 °F (at 6:00 AM)
Average temperature yesterday: 77 °F

Past Weeks' High & Low Weather Summary

 TemperatureHumidityPressure
High92 °F (Aug 29, 5:00 PM)97% (Aug 21, 6:00 AM)30.27 "Hg (Aug 21, 6:00 AM)
Low53 °F (Aug 26, 7:00 AM)29% (Aug 26, 3:00 PM)29.70 "Hg (Aug 24, 8:00 AM)
Average66 °F72%30.00 "Hg
* Reported Aug 15 9:00 AM — Aug 30 9:00 AM, Tuttlingen, Weather by CustomWeather, © 2015

Note: Actual official high and low records may vary slightly from our data, if they occured in-between our weather recording intervals... More about our weather records

Advertising

Tuttlingen weather history for previous 24 hours

 ConditionsComfort  
Time TempWeatherWind HumidityBarometerVisibility
9:00 AM
Sun, Aug 30
73 °FPassing clouds.1 mph74%30.12 "Hg19 mi
8:00 AM69 °FPassing clouds.1 mph82%30.13 "Hg19 mi
7:00 AM67 °FPassing clouds.1 mph90%30.12 "Hg22 mi
6:00 AM68 °FClear.1 mph88%30.11 "Hg22 mi
5:00 AM69 °FClear.1 mph85%30.09 "Hg22 mi
4:00 AM69 °FClear.1 mph84%30.09 "Hg25 mi
3:00 AM70 °FClear.2 mph82%30.09 "Hg22 mi
2:00 AM71 °FClear.2 mph76%30.08 "Hg28 mi
1:00 AM72 °FClear.2 mph69%30.07 "Hg31 mi
12:00 AM74 °FClear.2 mph67%30.06 "Hg37 mi
11:00 PM
Sat, Aug 29
77 °FClear.2 mph62%30.06 "Hg34 mi
10:00 PM80 °FClear.2 mph51%30.04 "Hg43 mi
9:00 PM80 °FClear.2 mph53%30.03 "Hg28 mi
8:00 PM85 °FSunny.2 mph43%30.01 "Hg43 mi
7:00 PM89 °FSunny.2 mph38%30.00 "Hg37 mi
6:00 PM91 °FSunny.2 mph35%30.01 "Hg25 mi
5:00 PM92 °FPassing clouds.2 mph35%30.02 "Hg22 mi
4:00 PM90 °FPassing clouds.2 mph40%30.04 "Hg22 mi
3:00 PM89 °FPassing clouds.2 mph41%30.07 "Hg22 mi
2:00 PM85 °FPassing clouds.2 mph46%30.10 "Hg25 mi
1:00 PM82 °FPassing clouds.2 mph51%30.13 "Hg25 mi
12:00 PM79 °FPassing clouds.1 mph55%30.15 "Hg22 mi
11:00 AM76 °FPassing clouds.1 mph59%30.16 "Hg22 mi
10:00 AM74 °FPassing clouds.1 mph61%30.17 "Hg22 mi
9:00 AM70 °FPassing clouds.1 mph73%30.17 "Hg22 mi
Weather by CustomWeather, © 2015

See weather overviewHow to use our weather pages